Overview Statistics Trail Chart Weather Telemetry Raw packets
 

This is the latest recevied weather packets stored in our database for station/object LU1MQF-13. If no packets are shown the sender has not sent any weather packets the latest 10 day(s).

<< 3 4 5 6 7 8 9 >>
Time Temp. Humidity Pressure Rain* Wind** Luminosity Snow
1777925528 22.78° C 34% 930.4 hPa - - - -
1777924626 22.78° C 34% 930.3 hPa - - - -
1777922826 22.78° C 34% 930.2 hPa - - - -
1777921926 22.78° C 34% 930.2 hPa - - - -
1777921027 22.78° C 34% 930.2 hPa - - - -
1777920126 22.78° C 34% 930.4 hPa - - - -
1777919226 22.78° C 34% 930.3 hPa - - - -
1777918327 22.78° C 34% 930.4 hPa - - - -
1777917427 22.78° C 34% 930.5 hPa - - - -
1777916526 22.78° C 36% 930.6 hPa - - - -
1777915626 22.78° C 34% 930.7 hPa - - - -
1777914725 22.22° C 33% 931 hPa - - - -
1777913825 22.22° C 33% 931.3 hPa - - - -
1777912926 22.22° C 38% 931.4 hPa - - - -
1777912026 21.11° C 39% 931.8 hPa - - - -
1777911126 21.11° C 40% 931.9 hPa - - - -
1777910226 21.11° C 38% 932.2 hPa - - - -
1777909326 20° C 37% 932.2 hPa - - - -
1777908426 20° C 39% 932.5 hPa - - - -
1777907531 18.89° C 40% 932.8 hPa - - - -
1777906626 18.89° C 40% 932.8 hPa - - - -
1777905726 18.89° C 44% 932.9 hPa - - - -
1777904826 17.78° C 41% 933.2 hPa - - - -
1777903926 17.22° C 40% 933.3 hPa - - - -
1777903051 17.22° C 41% 933.3 hPa - - - -

* Rain since midnight (hover to see other rain measurements)
** Current wind speed in m/s (hover to see current wind gust speed)